Zurück zum Katalog

STARLINK-35500

AktivKommunikationVLEO
NORAD 66093·PAYLOAD·🇺🇸 United States

Gestartet Oct 19, 2025 von Vandenberg Space Force Base

Loading…

Nächste Überflüge (nächste 24 Stunden)

TLE

AktuellSource: CelesTrak SupGP

Epoche: Sep 15, 2026, 03:37 UTC

1 66093C 25236H   26258.15118056  .00019376  00000+0  57244-3 0  2580
2 66093  53.1571 302.3695 0001230  95.9816 234.8314 15.34382840    14

Verfolge STARLINK-35500 in Echtzeit mit AllMySat

Download on the App Store